Wetbulb
50.98 50.85 50.28 49.21 49.51 50.89 51.96 51.96 51.61 51.28 50.89 50.11 49.38 48.90 48.41 49.60 50.10 51.16 52.30 51.68 51.09 49.85 46.98 46.54 45.76 44.02 42.66 42.10 42.38 41.67 41.49 41.32 41.79 41.26 41.72 43.17 46.43 48.39 48.71 49.17 49.11 48.79 47.55
44.68 47.22 47.28 46.00 49.25 50.31 51.34 51.44 51.93 51.64 51.22 50.62 50.21 49.52 48.97 49.26 49.58 50.26 50.85 51.55 51.15 50.32 48.81 46.77 45.77 45.38 43.50 43.38 42.92 41.73 40.68 41.28 41.51 38.69 38.98 38.52 40.74 43.85 46.60 46.86 47.17 44.79 44.44
43.01 46.03 47.50 46.29 47.97 49.12 50.18 51.43 51.49 51.39 51.28 50.96 50.58 50.14 49.93 49.41 49.03 49.28 49.21 50.66 51.16 50.49 49.26 48.00 46.98 45.68 44.62 43.29 42.94 42.31 40.87 39.06 40.85 40.84 39.05 36.05 35.61 37.44 41.77 41.64 42.56 43.72 43.49
44.97 46.93 47.17 46.71 47.75 49.32 50.64 51.11 51.42 51.55 51.60 51.01 49.74 48.73 48.37 47.89 49.36 49.47 49.74 49.80 50.42 49.55 49.56 48.84 47.66 46.50 45.69 44.25 43.73 45.03 41.11 40.64 38.79 41.16 43.36 40.34 38.90 35.54 35.09 40.30 41.42 42.32 43.45
45.71 46.49 46.78 48.56 49.40 50.22 49.49 49.81 50.33 50.42 49.98 49.66 49.75 48.74 48.05 48.35 48.68 48.64 48.76 48.75 49.57 49.76 49.65 48.99 47.56 46.54 46.20 45.34 44.58 43.81 42.99 42.04 40.30 39.88 40.03 39.67 39.66 39.31 36.89 34.86 37.62 41.02 42.46
45.92 46.69 47.79 49.05 48.81 48.53 47.41 46.48 46.34 46.94 47.28 47.10 47.33 47.46 47.01 47.24 46.78 47.10 46.96 47.91 48.81 49.01 49.38 49.52 47.67 47.18 46.53 45.70 45.32 44.89 43.85 42.83 42.04 41.13 40.35 39.39 38.04 37.70 37.01 35.62 36.05 36.73 39.33
45.07 45.74 46.11 46.49 46.33 45.29 45.23 45.42 45.40 45.23 46.27 46.57 46.77 46.93 46.96 46.86 46.65 46.74 46.72 47.18 47.51 47.68 47.46 47.50 47.15 46.74 46.98 46.91 46.32 45.04 44.11 43.41 42.17 41.40 40.75 41.04 40.23 40.31 39.32 37.47 37.40 35.49 37.35
45.42 45.56 46.17 44.92 44.62 44.82 44.06 43.33 43.83 44.01 45.05 46.59 46.98 47.13 47.60 46.91 47.04 47.19 46.77 46.45 45.85 45.39 44.76 44.69 44.95 45.24 45.67 45.56 45.35 44.56 44.19 43.73 42.71 41.97 41.49 41.26 40.94 40.87 39.87 38.54 35.86 35.23 36.11
44.63 45.43 44.90 43.85 42.87 42.79 42.94 42.83 42.80 43.03 43.71 44.96 45.36 44.72 44.48 44.28 43.87 43.67 43.14 42.13 41.93 43.17 40.64 40.47 39.94 40.26 40.52 41.53 42.03 42.29 42.34 42.48 42.19 41.97 41.72 41.05 41.06 41.01 40.31 39.33 38.19 36.14 33.09
44.17 44.13 43.15 42.80 42.55 42.58 42.07 42.03 42.20 42.10 42.75 43.33 42.53 42.70 41.89 41.56 40.66 39.09 37.83 37.98 38.21 38.82 38.68 38.45 38.27 38.21 38.35 38.23 37.58 37.28 38.44 38.48 38.59 40.37 39.94 40.13 40.61 40.60 40.15 39.43 38.76 37.45 36.61
43.69 42.75 42.15 42.32 42.17 41.94 41.78 41.38 41.44 41.72 41.57 41.63 40.71 38.47 37.62 38.04 37.85 37.28 37.12 37.17 37.57 37.75 37.82 38.02 37.76 37.61 37.33 37.31 36.41 36.03 36.53 35.87 35.81 36.10 36.50 37.01 38.35 38.74 39.28 39.53 38.99 37.55 36.64
43.30 42.52 41.78 41.34 40.98 40.65 40.78 40.53 40.32 39.79 39.33 38.56 37.30 37.14 37.48 37.23 36.29 36.27 36.41 36.74 36.07 36.90 37.01 37.02 36.83 36.72 36.73 36.42 35.67 35.25 35.51 35.12 34.73 35.17 35.49 35.74 38.55 35.60 36.15 37.13 37.46 37.95 37.59
43.10 42.35 41.46 40.64 40.66 40.87 40.56 40.45 39.67 38.21 37.51 37.40 36.88 37.00 36.56 35.80 35.02 35.36 35.89 36.42 35.94 35.84 35.92 36.10 35.55 35.74 36.09 35.61 35.31 35.53 35.64 35.35 35.59 35.78 35.41 35.67 35.51 34.81 34.66 34.44 34.14 35.11 37.73
42.72 41.02 39.78 39.22 39.43 40.03 39.69 39.11 38.25 37.17 36.78 36.92 36.40 35.83 35.42 35.31 34.81 35.27 35.44 35.53 35.33 35.06 35.31 35.72 36.02 36.21 36.21 36.15 35.77 35.47 34.42 34.69 36.39 37.11 37.37 37.13 36.69 36.44 35.95 35.78 34.96 36.06 34.24
39.56 40.92 40.24 39.32 39.44 39.31 39.61 38.64 37.22 36.52 36.59 36.13 35.79 35.48 35.74 35.63 35.38 35.29 35.23 35.42 35.21 35.34 35.05 34.93 34.90 35.14 35.43 36.72 34.71 35.43 34.83 34.76 35.29 36.23 36.91 37.56 38.66 41.25 41.10 38.60 36.78 37.14 36.18
39.62 40.43 40.96 40.72 39.87 38.91 38.62 38.14 36.20 36.08 36.42 35.22 35.31 36.08 35.70 35.26 35.05 34.89 34.54 34.31 34.24 34.11 34.22 33.66 33.74 33.48 36.04 39.85 41.27 39.66 34.50 35.09 34.92 34.04 35.09 36.20 38.54 38.61 39.76 39.82 39.61 38.42 35.87
39.88 39.73 40.24 40.28 39.79 39.06 38.85 36.38 35.83 36.15 35.27 34.72 34.93 34.98 34.75 34.64 34.64 34.65 34.02 33.55 33.52 33.53 33.02 33.13 33.55 33.05 33.66 38.84 39.40 40.06 35.75 34.15 33.97 34.07 34.39 35.26 36.30 37.38 36.50 37.91 38.82 38.68 39.16
39.03 39.03 39.01 39.90 39.66 39.24 37.40 35.93 35.75 34.51 34.31 34.17 34.64 35.29 35.37 34.76 34.94 34.88 34.47 34.28 33.42 32.56 32.77 33.13 32.94 32.03 33.38 38.29 38.76 38.83 34.78 33.23 33.18 33.52 34.28 34.91 34.95 35.96 36.37 36.02 35.63 35.99 36.56
38.22 38.40 39.00 39.88 38.67 36.75 35.10 35.02 34.78 34.37 33.93 33.93 34.14 35.48 35.77 34.84 34.98 34.44 34.11 33.51 33.33 33.11 32.83 32.38 31.40 31.02 32.12 37.26 38.16 37.81 33.16 32.55 32.05 33.97 34.82 35.70 35.27 37.88 38.91 35.96 35.55 35.55 35.65
38.52 38.17 38.85 38.19 35.71 33.77 34.39 33.81 33.26 32.99 32.75 34.02 34.74 35.32 35.23 34.78 34.27 33.49 33.48 33.78 33.24 31.67 31.74 32.01 31.91 33.96 33.12 36.59 38.41 38.10 33.50 32.05 32.36 32.83 33.97 37.27 36.67 38.85 38.76 35.88 34.82 32.94 33.87
37.68 38.37 36.17 35.17 34.56 33.50 33.42 32.29 31.91 32.09 34.60 35.30 35.28 35.04 34.99 34.50 33.72 32.86 32.42 31.21 30.84 31.09 30.22 30.47 30.97 31.23 32.22 32.40 37.87 38.45 33.96 32.37 32.95 33.69 33.02 33.83 37.54 38.25 38.59 38.80 36.21 35.55 36.97
36.30 36.53 34.90 33.68 32.84 33.30 33.09 32.69 32.25 34.13 34.64 34.70 34.53 34.32 33.62 33.41 33.12 30.86 30.64 31.00 30.49 28.92 28.13 28.60 29.34 30.89 30.60 35.42 36.67 37.90 37.91 37.50 34.51 33.57 34.34 34.34 37.16 38.22 38.39 37.69 38.13 38.62 38.76
36.02 35.91 33.75 32.07 31.91 32.67 32.17 31.41 32.25 34.04 34.72 34.02 33.05 32.29 32.05 32.15 32.27 30.51 30.07 29.29 29.31 27.97 27.17 26.96 27.69 28.32 30.98 30.85 36.23 37.00 36.67 37.09 34.69 34.25 35.36 37.62 37.50 37.56 36.84 37.16 37.32 38.02 33.16
34.68 33.73 31.94 30.62 30.08 31.41 32.38 32.13 33.06 33.62 33.35 31.02 30.55 31.34 30.23 30.59 30.42 31.11 30.44 28.27 27.87 27.27 27.09 26.51 26.07 27.83 28.99 30.37 30.17 31.57 32.07 35.16 34.64 35.31 34.06 36.16 36.68 36.36 35.64 35.05 34.51 32.04 31.07
32.26 31.89 30.77 30.65 30.80 31.59 32.00 33.04 34.05 33.32 30.82 29.45 29.07 28.83 29.32 28.24 28.48 28.98 29.43 29.31 29.51 29.53 28.73 28.95 28.95 28.38 28.21 30.38 34.19 34.42 33.09 33.69 34.29 35.42 33.85 33.19 31.91 31.55 31.38 32.71 30.59 30.30 31.04
31.11 30.75 30.93 30.31 31.06 32.09 32.24 33.90 33.54 31.56 29.50 28.44 28.65 28.39 28.70 28.13 28.20 27.50 28.47 34.41 36.54 37.43 37.51 37.54 35.99 33.67 35.46 36.33 36.54 36.41 35.98 36.12 36.36 33.32 32.16 30.17 29.43 28.20 30.91 29.85 29.73 30.64 31.51
MSLP
1014.38 1014.94 1015.43 1015.98 1016.40 1016.81 1017.31 1017.80 1018.34 1018.74 1019.11 1019.36 1019.48 1019.53 1019.74 1019.51 1019.54 1019.52 1019.48 1019.62 1019.79 1019.84 1020.07 1020.24 1020.17 1020.14 1020.38 1020.38 1020.23 1020.09 1020.05 1019.68 1019.15 1018.97 1018.28 1017.33 1017.10 1017.26 1017.29 1017.14 1017.21 1017.33 1017.43
1014.53 1015.13 1015.77 1016.29 1016.72 1017.11 1017.50 1017.89 1018.28 1018.64 1018.95 1019.15 1019.27 1019.39 1019.54 1019.55 1019.56 1019.48 1019.46 1019.48 1019.59 1019.75 1019.93 1020.12 1020.18 1020.18 1020.31 1020.36 1020.27 1020.21 1020.34 1020.02 1019.54 1019.65 1019.27 1018.51 1017.85 1017.63 1017.19 1017.08 1017.16 1017.24 1017.27
1014.44 1015.21 1015.89 1016.61 1016.98 1017.32 1017.63 1017.91 1018.19 1018.51 1018.79 1019.03 1019.23 1019.41 1019.54 1019.66 1019.75 1019.53 1019.49 1019.36 1019.38 1019.61 1019.79 1019.97 1020.12 1020.14 1020.18 1020.32 1020.25 1020.20 1020.30 1020.49 1020.04 1019.74 1019.85 1019.36 1019.14 1018.56 1017.35 1017.14 1017.06 1017.13 1017.19
1014.18 1015.02 1015.79 1016.57 1017.16 1017.43 1017.62 1017.84 1018.12 1018.44 1018.71 1018.94 1019.18 1019.42 1019.63 1019.82 1019.63 1019.39 1019.32 1019.31 1019.21 1019.39 1019.56 1019.75 1019.91 1020.04 1020.09 1020.20 1020.14 1020.01 1020.09 1020.35 1020.51 1020.07 1019.53 1019.46 1019.51 1019.50 1018.77 1017.68 1017.37 1017.12 1017.09
1014.51 1015.41 1016.06 1016.59 1017.06 1017.50 1017.87 1018.06 1018.24 1018.45 1018.65 1018.83 1019.03 1019.28 1019.59 1019.57 1019.40 1019.34 1019.30 1019.32 1019.19 1019.18 1019.34 1019.52 1019.69 1019.86 1019.92 1019.97 1019.94 1019.91 1020.02 1020.12 1020.29 1020.35 1020.20 1019.73 1019.39 1019.30 1019.43 1018.63 1017.97 1017.43 1017.09
1015.22 1015.81 1016.32 1016.79 1017.42 1017.76 1018.12 1018.29 1018.44 1018.60 1018.68 1018.83 1018.98 1019.21 1019.54 1019.66 1019.67 1019.65 1019.62 1019.41 1019.29 1019.27 1019.21 1019.35 1019.57 1019.65 1019.67 1019.76 1019.74 1019.74 1019.80 1019.88 1019.91 1019.92 1020.01 1019.97 1019.81 1019.41 1019.36 1019.07 1018.19 1017.80 1017.05
1015.72 1016.39 1016.87 1017.25 1017.75 1018.09 1018.34 1018.51 1018.55 1018.68 1018.70 1018.82 1018.97 1019.11 1019.28 1019.44 1019.65 1019.68 1019.68 1019.66 1019.59 1019.59 1019.64 1019.59 1019.71 1019.70 1019.52 1019.41 1019.34 1019.46 1019.55 1019.61 1019.64 1019.57 1019.58 1019.37 1019.25 1019.03 1018.93 1018.94 1018.42 1018.05 1016.93
1015.80 1016.48 1016.87 1017.23 1017.76 1018.13 1018.36 1018.49 1018.57 1018.72 1018.74 1018.84 1019.01 1019.16 1019.31 1019.45 1019.56 1019.62 1019.72 1019.82 1019.83 1019.85 1019.75 1019.75 1019.64 1019.52 1019.39 1019.28 1019.16 1019.24 1019.23 1019.18 1019.13 1019.04 1018.98 1018.82 1018.65 1018.55 1018.48 1018.46 1018.50 1017.86 1017.25
1015.79 1016.40 1016.84 1017.34 1017.92 1018.26 1018.43 1018.47 1018.56 1018.74 1018.87 1019.03 1019.12 1019.31 1019.45 1019.58 1019.72 1019.79 1019.87 1019.97 1019.97 1019.89 1019.90 1019.84 1019.84 1019.67 1019.52 1019.36 1019.21 1019.20 1019.11 1018.94 1018.76 1018.57 1018.42 1018.33 1018.10 1017.98 1017.82 1017.79 1017.93 1018.08 1017.37
1016.04 1016.70 1017.16 1017.61 1017.96 1018.19 1018.43 1018.63 1018.68 1018.90 1019.04 1019.12 1019.26 1019.50 1019.69 1019.79 1019.87 1019.95 1020.09 1020.15 1020.13 1020.01 1020.07 1020.04 1019.94 1019.82 1019.55 1019.35 1019.28 1019.15 1018.98 1018.77 1018.52 1018.28 1018.12 1017.92 1017.71 1017.49 1017.33 1017.27 1017.25 1017.29 1017.12
1015.95 1016.57 1017.09 1017.57 1017.88 1018.18 1018.51 1018.76 1018.90 1019.06 1019.26 1019.27 1019.41 1019.63 1019.79 1019.84 1019.90 1019.98 1020.09 1020.16 1020.16 1020.12 1020.11 1020.06 1019.95 1019.80 1019.60 1019.42 1019.27 1019.11 1018.87 1018.68 1018.41 1018.15 1017.93 1017.61 1017.32 1017.13 1016.91 1016.76 1016.69 1016.65 1016.51
1015.73 1016.51 1017.09 1017.67 1018.18 1018.51 1018.70 1018.88 1019.03 1019.23 1019.35 1019.39 1019.55 1019.76 1019.85 1019.88 1019.95 1020.06 1020.16 1020.21 1020.25 1020.15 1020.11 1020.00 1019.88 1019.75 1019.59 1019.44 1019.31 1019.13 1018.87 1018.62 1018.38 1018.00 1017.73 1017.44 1016.99 1016.81 1016.62 1016.48 1016.37 1016.08 1015.82
1015.31 1015.96 1016.48 1016.97 1017.45 1017.88 1017.97 1018.17 1018.47 1018.78 1018.92 1019.11 1019.31 1019.51 1019.65 1019.80 1019.94 1020.04 1020.14 1020.22 1020.28 1020.25 1020.12 1020.01 1019.88 1019.71 1019.56 1019.39 1019.22 1019.03 1018.75 1018.54 1018.31 1017.95 1017.59 1017.19 1016.85 1016.63 1016.30 1016.10 1015.98 1015.70 1015.25
1014.95 1015.64 1016.47 1016.93 1017.38 1017.74 1017.85 1018.00 1018.15 1018.33 1018.53 1018.77 1019.00 1019.34 1019.51 1019.65 1019.81 1019.94 1020.09 1020.18 1020.22 1020.19 1020.08 1019.94 1019.79 1019.58 1019.33 1019.10 1018.85 1018.68 1018.56 1018.39 1018.09 1017.76 1017.35 1016.89 1016.51 1016.15 1015.82 1015.58 1015.43 1015.09 1014.93
1014.92 1015.28 1015.76 1016.29 1016.69 1017.20 1017.61 1018.06 1018.48 1018.76 1018.87 1019.23 1019.38 1019.56 1019.66 1019.85 1020.02 1020.13 1020.15 1020.14 1020.10 1020.01 1019.88 1019.71 1019.54 1019.30 1019.04 1018.69 1018.41 1018.27 1018.19 1018.07 1017.80 1017.48 1017.05 1016.60 1016.11 1015.67 1015.32 1015.05 1014.87 1014.71 1014.37
1014.90 1015.07 1015.42 1015.65 1016.13 1016.67 1017.29 1017.73 1018.22 1018.61 1018.91 1019.22 1019.37 1019.45 1019.74 1020.05 1020.23 1020.25 1020.18 1020.05 1019.90 1019.78 1019.66 1019.50 1019.34 1019.06 1018.75 1018.32 1018.07 1017.90 1017.75 1017.59 1017.40 1017.09 1016.63 1016.26 1015.81 1015.31 1015.00 1014.78 1014.57 1014.34 1013.96
1015.28 1015.24 1015.26 1015.20 1015.53 1016.12 1016.63 1017.39 1017.91 1018.27 1018.69 1018.93 1019.06 1019.33 1019.68 1020.05 1020.18 1020.11 1020.02 1019.93 1019.75 1019.53 1019.38 1019.18 1019.00 1018.73 1018.35 1017.96 1017.65 1017.43 1017.24 1017.11 1016.85 1016.53 1016.16 1015.74 1015.43 1014.94 1014.50 1014.12 1013.75 1013.49 1013.19
1015.63 1015.58 1015.29 1015.04 1015.28 1015.65 1016.45 1017.15 1017.80 1018.50 1018.86 1019.03 1019.17 1019.34 1019.60 1019.66 1019.68 1019.81 1019.82 1019.67 1019.47 1019.32 1019.14 1018.84 1018.59 1018.35 1017.96 1017.53 1017.17 1016.90 1016.62 1016.38 1016.15 1015.93 1015.57 1014.89 1014.47 1014.22 1013.82 1013.36 1012.93 1012.57 1012.35
1015.70 1015.57 1015.35 1015.06 1015.22 1015.77 1016.44 1017.32 1018.08 1018.59 1019.07 1019.28 1019.30 1019.30 1019.24 1019.40 1019.55 1019.57 1019.43 1019.30 1019.15 1018.93 1018.70 1018.51 1018.18 1017.94 1017.51 1016.98 1016.56 1016.29 1016.02 1015.80 1015.51 1015.19 1014.78 1014.26 1013.59 1013.31 1012.96 1012.49 1012.20 1011.85 1011.21
1015.79 1015.65 1015.48 1015.37 1015.72 1016.37 1016.96 1017.67 1018.41 1018.79 1018.98 1019.06 1019.14 1019.16 1019.22 1019.25 1019.20 1019.15 1019.01 1018.76 1018.70 1018.63 1018.30 1017.98 1017.71 1017.40 1016.87 1016.33 1015.95 1015.68 1015.44 1015.17 1014.89 1014.50 1013.96 1013.61 1013.08 1012.53 1012.12 1011.68 1011.29 1010.72 1010.19
1015.85 1015.82 1015.86 1016.18 1016.42 1016.83 1017.47 1018.03 1018.47 1018.81 1018.79 1018.84 1018.88 1018.88 1018.74 1018.65 1018.65 1018.59 1018.48 1018.46 1018.34 1018.06 1017.82 1017.54 1017.13 1016.73 1016.27 1015.67 1015.33 1015.03 1014.71 1014.50 1014.05 1013.52 1013.05 1012.74 1012.34 1011.79 1011.30 1010.86 1010.41 1009.83 1009.07
1016.10 1016.33 1016.51 1016.90 1017.11 1017.35 1017.77 1018.26 1018.46 1018.53 1018.61 1018.69 1018.62 1018.41 1018.33 1018.31 1018.25 1018.26 1018.01 1017.86 1017.71 1017.57 1017.29 1017.01 1016.63 1016.16 1015.64 1015.17 1014.77 1014.45 1014.09 1013.68 1013.23 1012.71 1012.22 1011.87 1011.45 1010.84 1010.31 1009.79 1009.22 1008.63 1008.09
1016.44 1016.72 1017.05 1017.55 1017.68 1017.92 1018.09 1018.46 1018.42 1018.42 1018.44 1018.49 1018.36 1018.21 1018.01 1017.87 1017.80 1017.83 1017.63 1017.46 1017.26 1017.08 1016.85 1016.66 1016.22 1015.69 1015.13 1014.67 1014.37 1014.00 1013.66 1013.19 1012.71 1012.15 1011.54 1010.94 1010.46 1009.87 1009.21 1008.77 1008.17 1007.69 1007.45
1016.94 1017.31 1017.65 1017.97 1018.19 1018.19 1018.36 1018.23 1018.26 1018.37 1018.42 1018.28 1018.03 1017.94 1017.89 1017.70 1017.52 1017.33 1017.15 1017.04 1016.75 1016.53 1016.32 1016.01 1015.66 1015.14 1014.75 1014.32 1013.89 1013.48 1013.05 1012.50 1011.90 1011.34 1010.65 1010.00 1009.51 1009.04 1008.41 1007.76 1007.42 1007.17 1006.96
1017.29 1017.71 1017.90 1018.19 1018.34 1018.28 1018.30 1018.16 1018.05 1018.09 1018.07 1018.00 1017.81 1017.63 1017.49 1017.42 1017.22 1016.96 1016.66 1016.39 1015.92 1015.70 1015.39 1015.02 1014.86 1014.50 1014.07 1013.45 1013.17 1012.74 1012.21 1011.67 1011.08 1010.37 1009.67 1009.14 1008.71 1008.15 1007.57 1007.08 1006.86 1006.46 1006.12
1017.81 1018.03 1018.19 1018.25 1018.46 1018.42 1018.22 1018.02 1017.78 1017.76 1017.82 1017.77 1017.68 1017.50 1017.33 1017.15 1016.93 1016.59 1016.08 1015.65 1015.15 1014.71 1014.38 1014.08 1013.86 1013.33 1012.94 1012.51 1012.15 1011.76 1011.37 1010.89 1010.28 1009.55 1009.15 1008.61 1008.26 1007.88 1007.19 1006.86 1006.21 1005.84 1005.40
Wind_Speed
10 7 6 5 5 5 7 8 7 5 3 2 2 2 3 2 2 3 4 2 3 1 1 2 3 2 2 4 3 2 5 4 3 4 4 4 5 4 3 4 4 4 4
8 7 6 4 4 5 6 6 7 6 3 1 1 2 2 1 1 1 1 2 2 2 2 3 3 3 2 5 4 3 3 3 3 2 2 4 4 3 5 3 3 3 2
11 10 8 7 5 5 6 6 6 5 3 3 1 1 1 1 2 3 3 4 4 2 2 3 3 3 2 3 3 2 2 2 4 2 1 3 2 4 3 2 2 3 3
5 9 8 8 7 5 6 5 5 3 3 3 2 3 3 2 3 1 1 0 2 4 3 3 3 4 3 4 3 3 1 1 4 4 2 2 3 1 5 3 3 5 4
7 8 8 8 6 7 5 3 3 3 1 1 2 2 2 2 2 2 1 2 4 4 4 3 3 3 3 4 4 4 3 2 3 3 3 2 2 4 4 5 4 4 4
8 7 7 8 7 6 4 3 4 2 2 2 2 2 3 3 3 3 3 3 2 1 2 3 3 4 4 4 4 4 4 4 4 3 4 3 3 3 3 4 4 6 5
8 7 7 7 7 6 5 4 4 3 1 1 1 1 0 1 2 2 2 3 3 3 4 4 4 3 4 4 4 4 4 5 4 5 5 4 4 3 4 3 8 5 4
8 8 8 7 7 7 6 4 3 3 2 2 2 2 2 0 1 2 2 2 2 3 4 4 5 5 5 5 4 3 4 5 5 7 6 5 5 4 4 5 3 9 6
8 8 7 7 7 6 5 4 4 3 2 3 2 3 4 5 4 4 4 3 4 3 5 5 5 6 6 6 6 3 5 5 5 6 6 5 4 5 5 4 4 5 9
6 6 6 5 5 5 4 2 1 3 2 2 4 4 4 4 3 4 4 4 4 3 4 4 5 6 6 6 5 5 5 6 4 5 6 5 4 5 4 4 4 5 8
8 8 7 6 5 5 4 4 3 4 3 3 4 5 3 2 3 4 4 3 4 4 4 5 5 6 6 6 6 6 7 7 7 6 6 7 6 4 4 4 4 4 5
7 6 7 6 4 4 5 5 4 4 4 3 4 4 3 2 3 4 3 3 4 4 4 5 5 6 6 6 6 7 6 7 7 7 7 7 7 6 5 4 6 6 6
8 8 9 9 9 8 8 7 7 7 7 5 5 4 3 3 2 2 2 3 3 4 5 5 6 6 6 6 6 6 7 6 7 8 8 8 7 8 5 5 5 5 6
8 7 6 6 6 6 6 6 7 7 7 6 5 4 4 3 2 1 2 3 3 4 5 5 6 6 6 6 6 6 6 6 7 8 9 9 9 10 8 6 6 7 6
4 7 8 8 8 8 7 6 5 5 5 4 3 3 2 2 2 3 3 4 4 5 6 6 6 6 6 6 6 5 6 6 8 9 10 10 10 14 12 8 7 8 8
5 5 7 8 8 8 7 6 6 6 4 4 4 4 2 1 2 3 4 5 6 6 6 6 6 7 7 14 16 13 6 6 8 9 10 10 14 11 17 19 21 18 11
7 7 7 8 8 7 8 7 7 6 5 4 4 3 1 1 4 4 5 6 7 6 6 6 6 7 7 17 19 19 8 7 8 9 9 8 9 14 12 17 21 20 21
7 8 7 5 6 6 6 7 6 5 4 3 3 2 3 3 4 5 6 6 5 6 6 6 7 6 8 18 20 20 9 7 7 7 10 12 11 11 14 13 14 12 12
6 6 7 4 5 7 8 8 6 4 3 3 2 2 2 4 5 6 6 6 5 5 5 6 7 7 9 17 20 17 7 7 7 8 9 12 11 16 21 15 12 12 13
6 6 7 3 7 7 8 7 5 5 5 3 1 2 4 5 6 6 7 4 4 6 5 6 7 12 12 17 18 14 6 8 8 8 9 17 18 23 23 15 12 14 14
6 5 4 5 6 7 7 5 4 4 3 2 3 5 6 6 6 6 4 5 7 7 7 7 8 9 9 10 17 18 9 6 8 9 9 8 20 24 26 26 14 16 19
2 3 3 5 6 7 6 4 4 3 2 4 6 6 6 5 5 6 6 6 6 6 7 7 8 7 7 14 14 19 20 18 11 10 9 10 22 25 26 22 24 26 24
2 1 5 5 4 4 4 4 3 3 5 5 6 6 6 6 6 6 7 5 5 5 6 6 7 7 7 6 15 19 20 19 13 10 16 26 26 27 21 23 25 23 8
3 2 4 4 3 4 4 4 4 6 6 6 7 6 6 7 6 5 5 5 5 5 6 6 6 6 6 8 5 6 7 16 14 16 13 19 24 25 22 18 12 7 7
4 2 3 2 3 3 5 5 6 4 5 6 6 7 5 6 7 6 6 6 7 7 7 8 7 7 9 10 16 16 11 11 14 20 12 11 11 11 11 9 6 6 6
2 2 1 1 4 5 7 6 5 4 6 6 5 5 5 5 5 5 8 14 17 20 20 21 16 11 19 24 24 23 25 26 27 13 10 10 9 11 9 8 8 8 10
Wind_Direction
177 152 135 126 138 134 135 144 146 158 145 198 214 224 212 203 188 198 202 178 236 282 294 293 313 326 342 308 300 319 330 314 341 335 328 300 208 211 232 209 205 196 185
125 130 133 150 152 163 151 147 164 166 170 155 237 104 35 1 3 353 335 230 251 252 228 269 298 318 325 323 321 1 326 300 11 343 284 330 349 335 247 229 199 205 189
159 157 155 166 170 174 166 169 172 162 164 170 115 78 304 311 298 269 244 233 194 245 233 277 290 291 293 271 286 292 323 302 315 328 170 345 314 329 318 239 229 239 213
103 139 144 156 170 179 154 153 125 159 199 174 180 214 213 253 253 215 189 30 210 221 244 238 259 277 276 286 276 277 222 323 278 319 257 219 177 277 323 331 330 268 246
143 125 139 144 156 117 125 150 167 168 185 191 209 215 278 276 307 322 276 259 258 216 216 230 256 274 269 264 266 286 283 245 236 233 298 304 277 230 216 284 290 329 266
91 105 116 122 115 108 119 161 171 134 134 177 242 230 245 288 321 316 323 299 286 236 230 220 232 252 261 268 268 270 263 259 260 263 261 242 239 277 248 274 278 264 268
129 133 143 153 141 160 162 165 165 149 122 148 155 227 232 325 295 330 348 2 345 7 21 19 345 318 298 282 261 258 263 263 250 247 246 246 243 235 236 250 277 275 281
155 167 179 160 152 154 170 175 143 128 120 97 113 92 76 63 74 50 33 9 36 25 14 353 338 326 322 314 304 285 265 252 251 254 247 248 247 246 233 237 242 287 273
167 173 156 144 147 160 176 164 166 151 116 137 152 106 76 56 53 41 44 36 38 12 17 352 349 340 335 328 321 303 288 281 271 264 259 248 245 243 243 237 211 228 285
155 150 150 153 159 155 136 120 100 111 120 127 91 89 81 67 59 71 50 39 1 11 354 346 339 327 321 319 324 311 301 301 291 284 284 275 259 257 250 240 236 221 252
174 170 167 166 161 153 159 163 155 149 155 124 127 111 105 85 71 75 46 29 3 3 353 342 332 326 329 330 330 318 307 310 308 305 294 289 285 273 264 252 243 242 235
177 166 164 157 153 181 179 181 166 156 150 141 119 115 115 71 67 63 34 24 358 349 334 331 331 327 326 326 320 313 311 309 306 300 301 290 296 291 284 275 261 254 244
171 170 165 173 184 196 182 184 172 169 166 166 158 159 143 96 72 68 19 7 349 332 331 341 330 322 314 308 299 294 296 311 306 299 297 295 289 285 277 272 273 271 280
195 187 181 196 204 202 196 190 183 173 169 171 170 155 140 127 107 52 16 353 348 327 314 305 297 293 289 284 284 282 305 294 293 294 291 289 286 282 275 275 275 286 287
314 206 191 199 201 193 193 185 181 164 155 171 167 145 113 108 44 12 328 304 298 285 283 289 292 287 289 287 286 282 281 287 293 293 291 292 291 295 296 298 294 297 298
311 281 215 205 203 187 179 171 167 163 159 181 175 141 147 64 300 289 296 298 292 290 287 289 286 290 290 294 302 309 295 285 283 290 295 293 291 292 303 300 297 293 290
330 310 265 213 197 187 169 170 170 160 159 173 144 144 158 288 287 291 300 288 284 279 285 285 282 279 282 298 305 308 302 290 283 281 283 287 294 295 283 278 281 282 279
330 326 319 251 190 160 142 137 136 132 142 176 178 182 221 260 282 284 276 275 277 282 276 275 277 279 283 295 301 305 296 276 267 262 272 274 277 272 279 280 277 275 271
299 294 292 268 143 129 123 113 114 135 155 202 211 228 253 279 276 271 273 272 275 272 270 275 276 276 280 286 292 299 294 281 276 278 278 291 285 283 290 291 287 279 275
324 324 321 58 103 108 109 118 155 173 195 198 202 297 280 269 264 260 267 263 266 269 266 270 271 271 278 278 286 298 289 289 289 283 283 289 291 291 295 294 290 287 284
319 329 36 85 112 108 114 136 151 174 161 163 252 259 257 252 255 264 266 271 269 264 266 267 267 265 265 276 289 296 297 279 284 293 297 286 289 292 294 293 288 287 290
342 340 90 86 91 105 123 156 164 197 206 257 261 261 269 265 268 262 264 259 263 267 273 276 279 273 269 281 292 300 303 298 293 292 292 288 293 297 297 297 293 294 298
139 83 118 116 114 124 146 169 219 217 255 264 272 269 267 261 259 262 267 269 265 261 270 267 273 276 284 282 296 300 303 303 300 291 288 297 300 297 295 293 293 296 294
104 85 101 136 155 177 202 217 254 268 258 272 275 275 271 278 269 265 260 258 261 261 260 264 270 274 284 286 279 283 288 293 294 293 287 294 301 300 294 295 287 268 271
86 103 145 154 197 208 247 266 260 269 291 282 272 271 267 267 272 259 256 251 250 236 261 266 264 276 281 278 286 294 295 296 293 300 296 298 304 301 295 286 264 267 272
119 133 175 226 278 282 273 272 277 272 272 280 282 270 277 271 267 272 283 271 268 273 272 273 270 273 271 280 288 295 297 298 301 296 297 299 296 302 296 301 282 280 287